Regional Weather Roundup
Issued by NWS Mt. Holly, NJ

Home | Current Version | Previous Version | Text Only | Print | Product List | Glossary On
Versions: 1 2 3 4 5 6 7 8 9 10 11 12 13 14 15 16 17 18 19 20 21 22 23 24 25 26 27
000
ASUS41 KPHI 192113
RWRPHI

REGIONAL WEATHER ROUNDUP
NATIONAL WEATHER SERVICE MOUNT HOLLY NJ
500 PM EDT THU APR 19 2018

NOTE:  "FAIR" INDICATES FEW OR NO CLOUDS BELOW 12,000 FEET WITH NO
SIGNIFICANT WEATHER AND/OR OBSTRUCTIONS TO VISIBILITY.

 * = STATION DOES NOT REPORT PRECIPITATION (E.G. RAIN, SNOW, ETC.)
        OR FOG.

NJZ015>026-192200-
SOUTHERN NEW JERSEY

CITY           SKY/WX    TMP DP  RH WIND       PRES   REMARKS
POMONA         CLOUDY    50  41  71 NW23G31   29.85R
MILLVILLE      CLOUDY    48  36  63 NW16G28   29.87R
WRIGHTSTOWN    CLOUDY    46  36  66 NW12G20   29.82R
MOUNT HOLLY    PTSUNNY   46  38  73 NW9       29.86R
TRENTON        CLOUDY    46  36  68 W9        29.84R

$$
NJZ001>014-192200-
NORTHERN NEW JERSEY

CITY           SKY/WX    TMP DP  RH WIND       PRES   REMARKS
SUSSEX         CLOUDY    43  28  55 N10G22    29.83R
ANDOVER*         N/A     45  29  53 VRB6      29.83R
MORRISTOWN     LGT RAIN  43  32  65 N14G21    29.84R
NEWARK         PTSUNNY   46  36  68 NW13      29.82R
TETERBORO      CLOUDY    47  32  56 NW16G26   29.80R
CALDWELL       CLOUDY    44  32  62 NW14G26   29.83R
SOMERVILLE     CLOUDY    44  31  60 N17G26    29.83R
ALLAIRE*       CLOUDY    45  37  73 W13G20    29.83S
TOMS RIVER*    PTSUNNY   47  39  74 NW13G25   29.84R

$$
PAZ043-044-047-054-055-060>062-066>071-192200-
EASTERN PENNSYLVANIA

CITY           SKY/WX    TMP DP  RH WIND       PRES   REMARKS
PHILADELPHIA   CLOUDY    47  30  51 NW23G30   29.88R
NORTH PHILA    PTSUNNY   49  35  58 NW15G23   29.88R
BLUE BELL*     CLOUDY    43  32  65 W10G21    29.89R
DOYLESTOWN     CLOUDY    42  33  70 NW10G23   29.85R
QUAKERTOWN*    CLOUDY    43  34  70 W12       29.87R
PERKASIE*      CLOUDY    41  36  81 W12       29.87R
POTTSTOWN      CLOUDY    43  30  60 NW13G22   29.89R
LANCASTER      CLOUDY    45  30  55 NW17G25   29.92R
COATESVILLE    CLOUDY    43  30  61 NW20G33   29.90R
READING        CLOUDY    44  31  60 NW20      29.90R
ALLENTOWN      CLOUDY    43  31  62 NW13      29.87R
MOUNT POCONO   LGT SNOW  33  27  78 NW20G28   29.80R WCI  21
HAZLETON       CLOUDY    39  28  65 NW15G22   29.88R WCI  31
LEHIGHTON      CLOUDY    43  30  61 NW12G18   29.89R
WILKES BARRE   LGT RAIN  39  30  70 NW20G28   29.88R WCI  29

$$
DEZALL-MDZ008-012-015-019-020-192200-
DELAWARE AND EASTERN MARYLAND

CITY           SKY/WX    TMP DP  RH WIND       PRES   REMARKS
WILMINGTON     CLOUDY    46  33  60 NW15G30   29.90R
DOVER          CLOUDY    48  38  68 NW20G31   29.88R
GEORGETOWN     CLOUDY    52  40  63 N8G18     29.88R
EASTON         PTSUNNY   54  32  43 NW25G36   29.94R
ABERDEEN       CLOUDY    49  30  47 NW18G26   29.93R
PATUXENT       FAIR      59  33  37 NW26G36   29.91R
OCEAN CITY     CLOUDY    53  40  61 NW10G22   29.87R
WALLOPS ISLAND PTSUNNY   59  41  51 NW16G26   29.86R
CAMBRIDGE        N/A     55  34  44 NW24G36   29.91R
SALISBURY      CLOUDY    54  39  57 NW13G28   29.87R

$$
PAZ001-021-NYZ056-072-MDZ011-DCZ001-192200-
OTHER NEARBY LOCATIONS

CITY           SKY/WX    TMP DP  RH WIND       PRES   REMARKS
HARRISBURG     CLOUDY    44  29  55 NW26G33   29.95R
STATE COLLEGE  PTSUNNY   36  25  64 NW15G29   29.99R WCI  26
WILLIAMSPORT   FLURRIES  39  24  55 W20G31    29.96R WCI  29
BINGHAMTON     CLOUDY    32  25  75 NW14G23   29.86R WCI  22
NEW YORK CITY  CLOUDY    45  35  68 NW9       29.82
BALTIMORE      PTSUNNY   49  28  44 NW16G32   29.94R
WASHINGTON DC  PTSUNNY   54  27  35 NW18G37   29.97R

$$




USA.gov is the U.S. government's official web portal to all federal, state and local government web resources and services.